Showing default

BIROS, 41604

Orbit data source: Space-Track

BIROS, 41604 is a payload satellite owned by DLR (DE) in SSO that was launched on Wed, 22 Jun 2016 UTC via a PSLV-XL launch vehicle from the Sirharikota (SRI). Payload-class satellites include a variety of spacecraft equipped with specific instruments for various scientific and technological missions. These include communications satellites like Starlink; space stations such as the ISS; scientific satellites like the Hubble; Earth observation satellites from companies like Planet Labs, Umbra, and HawkEye 360; GPS; miniature CubeSats for education and research; and military/defense satellites.

Not visible in the next 10 days
Identifier
41604, 2016-040F
Orbit
SSO
Country
Flag of DEDE / GER
Related business
Manufacturer
ASTFN/KTHR
Mission
Operational Civil Imaging
Bus & Motor
TET-X, Unknown motor
Mass
130 kg wet, 130 kg dry
Launch date (UTC)
2016-06-22 (9 years ago)
Launch vehicle
PSLV-XL
Launch site
Sirharikota (SRI)
Object type
Payload
Rocket body
Debris
Shape & HBR
Box + 2 Pan, 0.9 m
Radar Cross Section
0.799 m², Medium (>0.1 m² and < 1m²)

Expand to show TLE details & history
Last TLE update: 22 hours ago

TLE from 22 hours ago
0 BIROS
1 41604U 16040F   25341.05777617  .00189994  00000-0  71317-3 0  9993
2 41604  97.0680  12.2729 0003067 160.5680 199.5710 15.87363914527825
Epoch: 2025-12-07T01:23Z
TLE epoch observation values (Epoch: 2025-12-07T01:23:11.861Z)
Latitude
0.00002°
Longitude
-84.60314°
Altitude
314.801 km
Speed
7.718 km/s
True Right ascension
00h 49m 05s
True Declination
0° 00' 00"
Sunlit
Object was in full shadow at epoch
Visualization orbit readout
Latitude
Unknown
Longitude
Unknown
Altitude
Unknown
Speed
Unknown
Apparent Right ascension
Unknown
Apparent Declination
Unknown
Sunlit
N/A
Visualization observer readout
Local Sidereal Time
21:10:37
Azimuth
Unknown
Elevation
Unknown
Doppler factor
Unknown
Orbital elements
Apogee altitude
308.589 km
Perigee altitude
304.489 km
Semi-major axis
6,684.676 km
Eccentricity
0.00031
Inclination
97.068°
RAAN
12.2729°
Arg. of periapsis
160.568°
True anomaly
199.55923°
Mean anomaly
199.571°
Eccentric anomaly
199.56512°
Mean motion
3.97121 °/min
Orbital period
90.65 mins
BSTAR
0.00071317
Loading maneuver chart data...
Computing Atmospheric mass density...

Documentation

Showing up to 5 results
|